[TLELIST]

Mailing List Information:

  • This mailing list is a public mailing list - anyone may join or leave, at any time.

  • This mailing list is announce-only.

International Space Station (ISS) / Hubble Space Telescope (HST) / Chandra X-Ray Observatory Orbital Data via EMAIL

Privacy Policy:

Private list

Archives:

[TLELIST] Current TLEs

Sent November 17th 2018

HST 1 20580U 90037B 18321.04387731 .00000440 00000-0 15947-4 0 9990 2 20580 28.4683 184.5715 0002628 348.3484 235.6883 15.09131448368582 ISS (ZARYA) 1 25544U 98067A 18321.27887847 .00001657 00000-0 32453-4 0 9996 2 25544 51.6413 335.8156 0005122 57.1779 33.5211 15.53976910142322 CXO 1 25867U 99040B 18322.66788338 +.00000754 +00000-0 +00000-0 0 9991 2 25867 069.9789 279.9346 6979356 238.5862 000.4815 00.37805244006879 ____________________________________________________________________ These 2-Line ...

[TLELIST] Current TLEs

Sent November 16th 2018

HST 1 20580U 90037B 18319.96702288 .00000428 00000-0 15198-4 0 9990 2 20580 28.4684 191.6913 0002587 336.5068 145.5238 15.09130820368422 ISS (ZARYA) 1 25544U 98067A 18320.11808257 .00001813 00000-0 34833-4 0 9994 2 25544 51.6414 341.6010 0005144 52.8692 19.6792 15.53972853142148 CXO 1 25867U 99040B 18322.66696449 .00000754 00000-0 00000+0 0 9991 2 25867 69.9789 279.9347 6979346 238.5862 0.3563 0.37805359 18014 ____________________________________________________________________ These 2-Line ...

[TLELIST] Current TLEs

Sent November 15th 2018

HST 1 20580U 90037B 18318.97426354 +.00000466 +00000-0 +17521-4 0 9991 2 20580 028.4685 198.2552 0002545 325.3755 152.4347 15.09130496368188 ISS (ZARYA) 1 25544U 98067A 18319.35728955 .00001991 00000-0 37540-4 0 9999 2 25544 51.6420 345.3926 0005122 49.9112 83.7163 15.53970101142027 CXO 1 25867U 99040B 18320.02393268 .00000687 00000-0 00000+0 0 9997 2 25867 69.9960 279.9701 6977547 238.6657 0.4951 0.37806310 18002 ____________________________________________________________________ These 2-Line ...

[TLELIST] Current TLEs

Sent November 14th 2018

HST 1 20580U 90037B 18317.12830966 .00000486 00000-0 18768-4 0 9991 2 20580 28.4687 210.4596 0002492 304.5934 204.5202 15.09129540367999 ISS (ZARYA) 1 25544U 98067A 18318.25659506 .00002553 00000-0 46074-4 0 9999 2 25544 51.6425 350.8772 0005205 46.5272 45.4271 15.53966703141852 CXO 1 25867U 99040B 18320.02393268 .00000687 00000-0 00000+0 0 9997 2 25867 69.9960 279.9701 6977547 238.6657 0.4951 0.37806310 18002 ____________________________________________________________________ These 2-Line ...

[TLELIST] Current TLEs

Sent November 13th 2018

HST 1 20580U 90037B 18317.12830966 .00000486 00000-0 18768-4 0 9991 2 20580 28.4687 210.4596 0002492 304.5934 204.5202 15.09129540367999 ISS (ZARYA) 1 25544U 98067A 18317.36053959 .00002962 00000-0 52279-4 0 9998 2 25544 51.6422 355.3424 0005124 42.7945 73.0653 15.53962948141711 CXO 1 25867U 99040B 18317.37988001 +.00000606 +00000-0 +00000-0 0 9998 2 25867 070.0182 280.0062 6976369 238.7515 000.4974 00.37803040006851 ____________________________________________________________________ These 2-Line ...

[TLELIST] Current TLEs

Sent November 12th 2018

HST 1 20580U 90037B 18315.92860163 +.00000509 +00000-0 +20149-4 0 9991 2 20580 028.4689 218.3912 0002475 290.5244 167.8220 15.09128918367729 ISS (ZARYA) 1 25544U 98067A 18316.40876157 .00002719 00000-0 48605-4 0 9993 2 25544 51.6415 0.0856 0005145 39.2001 148.6421 15.53955843141564 CXO 1 25867U 99040B 18317.37988001 +.00000606 +00000-0 +00000-0 0 9998 2 25867 070.0182 280.0062 6976369 238.7515 000.4974 00.37803040006851 ____________________________________________________________________ These 2-Line ...

[TLELIST] Current TLEs

Sent November 11th 2018

HST 1 20580U 90037B 18314.93599664 +.00000488 +00000-0 +18841-4 0 9998 2 20580 028.4689 224.9537 0002484 278.9250 176.0473 15.09128060367575 ISS (ZARYA) 1 25544U 98067A 18315.44449074 .00003271 00000-0 56997-4 0 9997 2 25544 51.6420 4.8937 0005168 36.0917 153.8179 15.53950133141417 CXO 1 25867U 99040B 18317.37988001 +.00000606 +00000-0 +00000-0 0 9998 2 25867 070.0182 280.0062 6976369 238.7515 000.4974 00.37803040006851 ____________________________________________________________________ These 2-Line ...

[TLELIST] Current TLEs

Sent November 10th 2018

HST 1 20580U 90037B 18314.21448885 .00000481 00000-0 18434-4 0 9998 2 20580 28.4689 229.7240 0002484 270.5720 216.7812 15.09127534367551 ISS (ZARYA) 1 25544U 98067A 18314.40173067 .00003224 00000-0 56294-4 0 9996 2 25544 51.6418 10.0867 0005017 33.5044 79.1321 15.53944660141250 CXO 1 25867U 99040B 18317.37917167 .00000606 00000-0 00000+0 0 9992 2 25867 70.0182 280.0062 6976370 238.7515 0.4009 0.37803047 17996 ____________________________________________________________________ These 2-Line ...

[TLELIST] Current TLEs

Sent November 9th 2018

HST 1 20580U 90037B 18312.88031104 .00000507 00000-0 20064-4 0 9992 2 20580 28.4690 238.5449 0002501 254.8367 169.7543 15.09126746367343 ISS (ZARYA) 1 25544U 98067A 18313.50043262 .00003790 00000-0 64895-4 0 9993 2 25544 51.6420 14.5797 0004872 29.1272 78.1411 15.53940270141113 CXO 1 25867U 99040B 18314.73552422 .00000541 00000-0 00000+0 0 9996 2 25867 70.0404 280.0466 6976179 238.8372 0.4596 0.37801672 17982 ____________________________________________________________________ These 2-Line ...

[TLELIST] Current TLEs

Sent November 8th 2018

HST 1 20580U 90037B 18311.54025463 .00000523 00000-0 21018-4 0 9993 2 20580 28.4692 247.4046 0002527 239.5346 90.2985 15.09126029367142 ISS (ZARYA) 1 25544U 98067A 18312.27907144 .00003523 00000-0 60873-4 0 9990 2 25544 51.6414 20.6658 0004846 24.3489 85.8922 15.53929029140927 CXO 1 25867U 99040B 18314.73552422 .00000541 00000-0 00000+0 0 9996 2 25867 70.0404 280.0466 6976179 238.8372 0.4596 0.37801672 17982 ____________________________________________________________________ These 2-Line ...

< < Previous

Index

 

this list's archives:

(archive rss , atom rss/atom )

Administration